This is the latest recevied weather packets stored in our database for station/object EA3FHP. If no packets are shown the sender has not sent any weather packets the latest 10 day(s).
| Time | Temp. | Humidity | Pressure | Rain* | Wind** | Luminosity | Snow |
|---|---|---|---|---|---|---|---|
| 1777654205 | 18.89° C | 60% | 1023.9 hPa | 0 mm | - | - | - |
| 1777653603 | 18.89° C | 58% | 1023.7 hPa | 0 mm | - | - | - |
| 1777653003 | 19.44° C | 56% | 1023.8 hPa | 0 mm | - | - | - |
| 1777652403 | 19.44° C | 60% | 1023.5 hPa | 0 mm | - | - | - |
| 1777651803 | 18.89° C | 59% | 1023.5 hPa | 0 mm | - | - | - |
| 1777651203 | 19.44° C | 61% | 1023.7 hPa | 0 mm | - | - | - |
| 1777650603 | 19.44° C | 60% | 1023.5 hPa | 0 mm | - | - | - |
| 1777650004 | 19.44° C | 62% | 1023.6 hPa | 0 mm | - | - | - |
| 1777649403 | 19.44° C | 63% | 1023.8 hPa | 0 mm | - | - | - |
| 1777648803 | 19.44° C | 59% | 1023.6 hPa | 0 mm | - | - | - |
| 1777648203 | 20° C | 59% | 1023.7 hPa | 0 mm | - | - | - |
| 1777647604 | 20° C | 61% | 1023.6 hPa | 0 mm | - | - | - |
| 1777647003 | 19.44° C | 60% | 1023.6 hPa | 0 mm | - | - | - |
| 1777646404 | 20° C | 60% | 1023.7 hPa | 0 mm | - | - | - |
| 1777645803 | 20° C | 61% | 1023.7 hPa | 0 mm | - | - | - |
| 1777645203 | 20° C | 61% | 1023.8 hPa | 0 mm | - | - | - |
| 1777644603 | 20° C | 61% | 1023.7 hPa | 0 mm | - | - | - |
| 1777644003 | 20.56° C | 59% | 1023.6 hPa | 0 mm | - | - | - |
| 1777643403 | 20° C | 62% | 1023.8 hPa | 0 mm | - | - | - |
| 1777642803 | 20.56° C | 62% | 1023.7 hPa | 0 mm | - | - | - |
| 1777642203 | 21.11° C | 59% | 1023.7 hPa | 0 mm | - | - | - |
| 1777641603 | 21.67° C | 58% | 1023.7 hPa | 0 mm | - | - | - |
| 1777641003 | 21.11° C | 62% | 1023.8 hPa | 0 mm | - | - | - |
| 1777640403 | 21.11° C | 59% | 1024 hPa | 0 mm | - | - | - |
| 1777639803 | 20.56° C | 63% | 1023.9 hPa | 0 mm | - | - | - |
* Rain latest hour (hover to see other rain measurements)
** Current wind speed in m/s (hover to see current wind gust speed)